• In Belarus
  • List of Countries
  • For 7 days
  • Water Temperature
  • Satellite Maps
  • Weather Map
  • Weather Widgets
  • user-avatar
    Login

    Hourly Weather Yerevan

    Today, 19 July, Friday

    Time Temperature Precipitation Wind Pressure Humidity
    00:00 +27°C° 0 mm 2 mps 686 mmHg 35%
    01:00 +26°C° 0 mm 2 mps 687 mmHg 38%
    02:00 +25°C° 0 mm 2 mps 687 mmHg 41%
    03:00 +24°C° 0 mm 2 mps 687 mmHg 43%
    04:00 +25°C° 0 mm 2 mps 687 mmHg 44%
    05:00 +25°C° 0 mm 2 mps 687 mmHg 44%
    06:00 +26°C° 0 mm 2 mps 688 mmHg 44%
    07:00 +28°C° 0 mm 2 mps 688 mmHg 40%
    08:00 +30°C° 0 mm 2 mps 688 mmHg 35%
    09:00 +32°C° 0 mm 2 mps 689 mmHg 30%
    10:00 +35°C° 0 mm 2 mps 689 mmHg 26%
    11:00 +36°C° 0 mm 2 mps 689 mmHg 22%
    12:00 +38°C° 0 mm 2 mps 689 mmHg 18%
    13:00 +39°C° 0 mm 2 mps 689 mmHg 17%
    14:00 +39°C° 0 mm 2 mps 689 mmHg 16%
    15:00 +40°C° 0 mm 2 mps 688 mmHg 14%
    16:00 +39°C° 0 mm 3 mps 688 mmHg 17%
    17:00 +39°C° 0 mm 3 mps 689 mmHg 19%
    18:00 +38°C° 0 mm 4 mps 689 mmHg 22%
    19:00 +35°C° 0 mm 4 mps 689 mmHg 31%
    20:00 +32°C° 0 mm 4 mps 689 mmHg 39%
    21:00 +28°C° 0 mm 4 mps 689 mmHg 48%
    22:00 +27°C° 0 mm 4 mps 689 mmHg 51%
    23:00 +27°C° 0 mm 3 mps 689 mmHg 53%

    Tomorrow, 20 July, Saturday

    Time Temperature Precipitation Wind Pressure Humidity
    00:00 +26°C° 0 mm 3 mps 690 mmHg 56%
    01:00 +25°C° 0 mm 3 mps 690 mmHg 57%
    02:00 +25°C° 0 mm 3 mps 690 mmHg 59%
    03:00 +24°C° 0 mm 3 mps 690 mmHg 60%
    04:00 +25°C° 0 mm 2 mps 690 mmHg 59%
    05:00 +25°C° 0 mm 2 mps 690 mmHg 57%
    06:00 +26°C° 0 mm 2 mps 691 mmHg 56%
    07:00 +27°C° 0 mm 2 mps 691 mmHg 51%
    08:00 +29°C° 0 mm 2 mps 691 mmHg 45%
    09:00 +31°C° 0 mm 1 mps 691 mmHg 40%
    10:00 +34°C° 0 mm 2 mps 691 mmHg 35%
    11:00 +36°C° 0 mm 2 mps 691 mmHg 31%
    12:00 +38°C° 0 mm 2 mps 692 mmHg 26%
    13:00 +39°C° 0 mm 3 mps 691 mmHg 24%
    14:00 +40°C° 0 mm 3 mps 691 mmHg 22%
    15:00 +42°C° 0 mm 4 mps 691 mmHg 19%
    16:00 +41°C° 0 mm 4 mps 691 mmHg 21%
    17:00 +40°C° 0 mm 4 mps 691 mmHg 23%
    18:00 +40°C° 0 mm 4 mps 691 mmHg 25%
    19:00 +36°C° 0 mm 4 mps 691 mmHg 32%
    20:00 +34°C° 0 mm 4 mps 691 mmHg 40%
    21:00 +30°C° 0 mm 4 mps 691 mmHg 48%
    22:00 +29°C° 0 mm 3 mps 691 mmHg 51%
    23:00 +28°C° 0 mm 3 mps 691 mmHg 53%

    Day after tomorrow, 21 July, Sunday

    Time Temperature Precipitation Wind Pressure Humidity
    00:00 +27°C° 0 mm 2 mps 691 mmHg 56%
    01:00 +26°C° 0 mm 2 mps 691 mmHg 58%
    02:00 +26°C° 0 mm 2 mps 691 mmHg 59%
    03:00 +25°C° 0 mm 2 mps 691 mmHg 61%
    04:00 +25°C° 0 mm 2 mps 691 mmHg 59%
    05:00 +26°C° 0 mm 1 mps 691 mmHg 56%
    06:00 +26°C° 0 mm 1 mps 692 mmHg 54%
    07:00 +29°C° 0 mm 1 mps 692 mmHg 47%
    08:00 +31°C° 0 mm 2 mps 692 mmHg 39%
    09:00 +34°C° 0 mm 2 mps 692 mmHg 32%
    10:00 +36°C° 0 mm 3 mps 692 mmHg 27%
    11:00 +38°C° 0 mm 4 mps 692 mmHg 23%
    12:00 +41°C° 0 mm 4 mps 692 mmHg 18%
    13:00 +42°C° 0 mm 5 mps 692 mmHg 16%
    14:00 +44°C° 0 mm 6 mps 691 mmHg 15%
    15:00 +45°C° 0 mm 6 mps 691 mmHg 13%
    16:00 +45°C° 0 mm 6 mps 691 mmHg 16%
    17:00 +43°C° 0 mm 5 mps 691 mmHg 18%
    18:00 +42°C° 0 mm 5 mps 691 mmHg 20%
    19:00 +40°C° 0 mm 5 mps 691 mmHg 23%
    20:00 +36°C° 0 mm 4 mps 691 mmHg 27%
    21:00 +34°C° 0 mm 4 mps 691 mmHg 31%
    22:00 +31°C° 0 mm 3 mps 691 mmHg 36%
    23:00 +29°C° 0 mm 3 mps 690 mmHg 40%

    22 July, Monday

    Time Temperature Precipitation Wind Pressure Humidity
    00:00 +28°C° 0 mm 3 mps 690 mmHg 44%
    01:00 +27°C° 0 mm 3 mps 690 mmHg 46%
    02:00 +26°C° 0 mm 2 mps 689 mmHg 49%
    03:00 +25°C° 0 mm 2 mps 689 mmHg 51%
    04:00 +26°C° 0 mm 2 mps 689 mmHg 50%
    05:00 +26°C° 0 mm 2 mps 689 mmHg 49%
    06:00 +27°C° 0 mm 1 mps 690 mmHg 48%
    07:00 +29°C° 0 mm 2 mps 690 mmHg 42%
    08:00 +31°C° 0 mm 2 mps 690 mmHg 36%
    09:00 +35°C° 0 mm 2 mps 690 mmHg 30%
    10:00 +37°C° 0 mm 2 mps 690 mmHg 26%
    11:00 +38°C° 0 mm 2 mps 690 mmHg 23%
    12:00 +40°C° 0 mm 2 mps 690 mmHg 19%
    13:00 +41°C° 0 mm 2 mps 689 mmHg 18%
    14:00 +42°C° 0 mm 1 mps 689 mmHg 16%
    15:00 +44°C° 0 mm 1 mps 689 mmHg 14%
    16:00 +43°C° 0 mm 2 mps 689 mmHg 16%
    17:00 +43°C° 0 mm 3 mps 688 mmHg 18%
    18:00 +43°C° 0 mm 4 mps 688 mmHg 20%
    19:00 +38°C° 0 mm 4 mps 688 mmHg 28%
    20:00 +35°C° 0 mm 4 mps 688 mmHg 36%
    21:00 +32°C° 0 mm 4 mps 688 mmHg 44%
    22:00 +30°C° 0 mm 4 mps 688 mmHg 46%
    23:00 +29°C° 0 mm 4 mps 688 mmHg 48%

    23 July, Tuesday

    Time Temperature Precipitation Wind Pressure Humidity
    00:00 +28°C° 0 mm 4 mps 688 mmHg 49%
    01:00 +27°C° 0 mm 4 mps 688 mmHg 52%
    02:00 +26°C° 0 mm 3 mps 687 mmHg 54%
    03:00 +26°C° 0 mm 3 mps 687 mmHg 57%
    04:00 +26°C° 0 mm 3 mps 687 mmHg 55%
    05:00 +26°C° 0 mm 2 mps 688 mmHg 54%
    06:00 +27°C° 0 mm 2 mps 688 mmHg 52%
    07:00 +29°C° 0 mm 2 mps 688 mmHg 47%
    08:00 +31°C° 0 mm 2 mps 688 mmHg 41%
    09:00 +34°C° 0 mm 2 mps 688 mmHg 35%
    10:00 +36°C° 0 mm 2 mps 688 mmHg 31%
    11:00 +37°C° 0 mm 2 mps 688 mmHg 28%
    12:00 +39°C° 0 mm 2 mps 688 mmHg 24%
    13:00 +40°C° 0 mm 2 mps 687 mmHg 23%
    14:00 +41°C° 0 mm 2 mps 687 mmHg 22%
    15:00 +41°C° 0 mm 2 mps 686 mmHg 21%
    16:00 +42°C° 0 mm 3 mps 686 mmHg 23%
    17:00 +41°C° 0 mm 4 mps 686 mmHg 25%
    18:00 +40°C° 0 mm 5 mps 686 mmHg 27%
    19:00 +36°C° 0 mm 5 mps 687 mmHg 34%
    20:00 +34°C° 0 mm 4 mps 687 mmHg 41%
    21:00 +30°C° 0 mm 3 mps 687 mmHg 48%
    22:00 +29°C° 0 mm 3 mps 687 mmHg 50%
    23:00 +28°C° 0 mm 2 mps 687 mmHg 52%

    24 July, Wednesday

    Time Temperature Precipitation Wind Pressure Humidity
    00:00 +27°C° 0 mm 2 mps 687 mmHg 54%
    01:00 +27°C° 0 mm 2 mps 687 mmHg 55%
    02:00 +26°C° 0 mm 2 mps 687 mmHg 57%
    03:00 +26°C° 0 mm 2 mps 687 mmHg 58%
    04:00 +26°C° 0 mm 2 mps 687 mmHg 56%
    05:00 +26°C° 0 mm 1 mps 687 mmHg 55%
    06:00 +27°C° 0 mm 1 mps 687 mmHg 54%
    07:00 +29°C° 0 mm 1 mps 687 mmHg 47%
    08:00 +31°C° 0 mm 1 mps 687 mmHg 41%
    09:00 +34°C° 0 mm 2 mps 687 mmHg 35%
    10:00 +36°C° 0 mm 2 mps 687 mmHg 30%
    11:00 +38°C° 0 mm 2 mps 687 mmHg 24%
    12:00 +40°C° 0 mm 2 mps 687 mmHg 19%
    13:00 +41°C° 0 mm 2 mps 687 mmHg 16%
    14:00 +43°C° 0 mm 2 mps 687 mmHg 12%
    15:00 +45°C° 0 mm 3 mps 687 mmHg 9%
    16:00 +45°C° 0 mm 4 mps 687 mmHg 8%
    17:00 +45°C° 0 mm 6 mps 687 mmHg 8%
    18:00 +45°C° 0 mm 8 mps 687 mmHg 8%
    19:00 +40°C° 0 mm 6 mps 687 mmHg 12%
    20:00 +35°C° 0 mm 4 mps 687 mmHg 16%
    21:00 +31°C° 0 mm 2 mps 687 mmHg 21%
    22:00 +30°C° 0 mm 2 mps 687 mmHg 25%
    23:00 +29°C° 0 mm 2 mps 687 mmHg 29%
    Show more